H1 CPF 2 NER 2022 1 18 9 018 01 glonass141 H2 1908801 9141 44850 2022 1 18 0 0 0 2022 1 21 23 45 0 900 1 1 0 0 0 1 H9 10 0 59597 0.00000 0 19169429.989 -4228181.111 -16271774.516 10 0 59597 900.00000 0 21029887.646 -4077342.009 -13834392.475 10 0 59597 1800.00000 0 22580584.358 -4088860.193 -11128035.607 10 0 59597 2700.00000 0 23779671.370 -4219119.417 -8205390.530 10 0 59597 3600.00000 0 24596818.384 -4417962.003 -5123315.141 10 0 59597 4500.00000 0 25014370.299 -4631040.691 -1941726.616 10 0 59597 5400.00000 0 25027988.968 -4802350.733 1277567.710 10 0 59597 6300.00000 0 24646754.361 -4876834.239 4472073.342 10 0 59597 7200.00000 0 23892722.285 -4802946.048 7579821.632 10 0 59597 8100.00000 0 22799958.637 -4535072.354 10540569.066 10 0 59597 9000.00000 0 21413091.891 -4035699.855 13296959.677 10 0 59597 9900.00000 0 19785445.494 -3277244.058 15795628.294 10 0 59597 10800.00000 0 17976828.962 -2243459.852 17988224.002 10 0 59597 11700.00000 0 16051080.256 -930375.121 19832334.933 10 0 59597 12600.00000 0 14073461.880 653291.811 21292297.591 10 0 59597 13500.00000 0 12108018.646 2486248.834 22339876.331 10 0 59597 14400.00000 0 10215006.212 4535276.612 22954801.057 10 0 59597 15300.00000 0 8448496.202 6756379.180 23125153.746 10 0 59597 16200.00000 0 6854256.221 9096392.080 22847597.103 10 0 59597 17100.00000 0 5467991.552 11494982.916 22127441.254 10 0 59597 18000.00000 0 4314020.588 13886962.951 20978547.110 10 0 59597 18900.00000 0 3404438.186 16204815.613 19423067.725 10 0 59597 19800.00000 0 2738801.181 18381338.585 17491031.694 10 0 59597 20700.00000 0 2304348.965 20352290.978 15219775.442 10 0 59597 21600.00000 0 2076749.870 22058936.468 12653233.959 10 0 59597 22500.00000 0 2021342.303 23450376.953 9841102.260 10 0 59597 23400.00000 0 2094818.860 24485579.314 6837882.564 10 0 59597 24300.00000 0 2247282.819 25135010.134 3701834.606 10 0 59597 25200.00000 0 2424590.425 25381809.108 493848.742 10 0 59597 26100.00000 0 2570879.928 25222450.856 -2723736.452 10 0 59597 27000.00000 0 2631179.902 24666866.178 -5888348.992 10 0 59597 27900.00000 0 2553985.605 23738016.514 -8938406.593 10 0 59597 28800.00000 0 2293693.014 22470938.562 -11814523.355 10 0 59597 29700.00000 0 1812785.939 20911298.547 -14460675.595 10 0 59597 30600.00000 0 1083681.845 19113516.560 -16825303.088 10 0 59597 31500.00000 0 90156.461 17138539.851 -18862323.143 10 0 59597 32400.00000 0 -1171714.895 15051358.838 -20532036.974 10 0 59597 33300.00000 0 -2693140.768 12918370.562 -21801910.003 10 0 59597 34200.00000 0 -4452740.874 10804700.743 -22647210.415 10 0 59597 35100.00000 0 -6417213.204 8771597.142 -23051493.344 10 0 59597 36000.00000 0 -8542513.936 6874003.687 -23006921.244 10 0 59597 36900.00000 0 -10775501.306 5158417.005 -22514414.326 10 0 59597 37800.00000 0 -13055974.995 3661114.751 -21583628.426 10 0 59597 38700.00000 0 -15319025.856 2406829.149 -20232761.046 10 0 59597 39600.00000 0 -17497597.623 1407920.282 -18488189.744 10 0 59597 40500.00000 0 -19525153.356 664082.279 -16383950.343 10 0 59597 41400.00000 0 -21338335.008 162592.976 -13961065.530 10 0 59597 42300.00000 0 -22879504.687 -120905.327 -11266737.488 10 0 59597 43200.00000 0 -24099061.383 -221128.909 -8353420.781 10 0 59597 44100.00000 0 -24957436.375 -181435.285 -5277794.130 10 0 59597 45000.00000 0 -25426684.206 -51739.699 -2099651.777 10 0 59597 45900.00000 0 -25491603.269 113844.920 1119263.404 10 0 59597 46800.00000 0 -25150339.978 259543.541 4316461.841 10 0 59597 47700.00000 0 -24414452.275 330522.062 7429920.365 10 0 59597 48600.00000 0 -23308430.980 275447.195 10399282.752 10 0 59597 49500.00000 0 -21868700.125 48894.827 13167024.489 10 0 59597 50400.00000 0 -20142139.073 -386494.748 15679559.424 10 0 59597 51300.00000 0 -18184188.883 -1058205.396 17888267.573 10 0 59597 52200.00000 0 -16056622.271 -1982453.553 19750425.154 10 0 59597 53100.00000 0 -13825070.111 -3163274.783 21230019.886 10 0 59597 54000.00000 0 -11556406.919 -4592126.925 22298437.117 10 0 59597 54900.00000 0 -9316103.187 -6248026.872 22935004.691 10 0 59597 55800.00000 0 -7165653.395 -8098216.033 23127387.061 10 0 59597 56700.00000 0 -5160185.136 -10099327.919 22871821.811 10 0 59597 57600.00000 0 -3346347.120 -12199010.708 22173194.365 10 0 59597 58500.00000 0 -1760562.487 -14337938.948 21044949.389 10 0 59597 59400.00000 0 -427718.785 -16452132.515 19508840.063 10 0 59597 60300.00000 0 639651.793 -18475488.083 17594519.144 10 0 59597 61200.00000 0 1441668.260 -20342419.201 15338978.518 10 0 59597 62100.00000 0 1990860.760 -21990496.119 12785846.680 10 0 59597 63000.00000 0 2311404.597 -23362975.955 9984556.260 10 0 59597 63900.00000 0 2437860.325 -24411117.595 6989396.494 10 0 59597 64800.00000 0 2413472.657 -25096184.178 3858467.899 10 0 59597 65700.00000 0 2288099.713 -25391048.433 652558.723 10 0 59597 66600.00000 0 2115860.033 -25281332.326 -2566035.244 10 0 59597 67500.00000 0 1952597.149 -24766031.832 -5734724.454 10 0 59597 68400.00000 0 1853269.657 -23857599.093 -8791848.886 10 0 59597 69300.00000 0 1869378.312 -22581477.223 -11677886.172 10 0 59597 70200.00000 0 2046540.430 -20975106.204 -14336620.038 10 0 59597 71100.00000 0 2422315.888 -19086440.886 -16716245.311 10 0 59597 72000.00000 0 3024378.397 -16972042.933 -18770386.840 10 0 59597 72900.00000 0 3869111.121 -14694826.724 -20459011.642 10 0 59597 73800.00000 0 4960687.649 -12321553.878 -21749215.842 10 0 59597 74700.00000 0 6290678.540 -9920181.790 -22615870.551 10 0 59597 75600.00000 0 7838201.336 -7557177.493 -23042113.932 10 0 59597 76500.00000 0 9570608.740 -5294909.506 -23019679.827 10 0 59597 77400.00000 0 11444686.724 -3189226.841 -22549056.662 10 0 59597 78300.00000 0 13408312.745 -1287326.110 -21639473.827 10 0 59597 79200.00000 0 15402504.698 374004.688 -20308716.084 10 0 59597 80100.00000 0 17363774.673 1769693.178 -18582770.029 10 0 59597 81000.00000 0 19226688.695 2887187.103 -16495309.902 10 0 59597 81900.00000 0 20926524.986 3726724.293 -14087033.197 10 0 59597 82800.00000 0 22401919.016 4301058.685 -11404859.539 10 0 59597 83700.00000 0 23597384.337 4634656.070 -8501008.989 10 0 59597 84600.00000 0 24465603.462 4762395.562 -5431978.274 10 0 59597 85500.00000 0 24969392.824 4727833.542 -2257435.577 10 0 59598 0.00000 0 25083259.792 4581105.256 960943.745 10 0 59598 900.00000 0 24794486.985 4376554.145 4160679.060 10 0 59598 1800.00000 0 24103699.115 4170190.499 7279695.813 10 0 59598 2700.00000 0 23024889.670 4017087.358 10257528.376 10 0 59598 3600.00000 0 21584906.918 3968824.291 13036486.770 10 0 59598 4500.00000 0 19822421.697 4071086.958 15562766.658 10 0 59598 5400.00000 0 17786420.687 4361523.516 17787481.472 10 0 59598 6300.00000 0 15534288.295 4867947.850 19667597.633 10 0 59598 7200.00000 0 13129557.084 5606964.811 21166755.843 10 0 59598 8100.00000 0 10639419.818 6583075.013 22255963.835 10 0 59598 9000.00000 0 8132105.630 7788296.786 22914148.400 10 0 59598 9900.00000 0 5674228.154 9202321.464 23128557.056 10 0 59598 10800.00000 0 3328214.097 10793196.363 22895002.408 10 0 59598 11700.00000 0 1149917.383 12518508.116 22217944.851 10 0 59598 12600.00000 0 -813483.650 14327018.478 21110411.997 10 0 59598 13500.00000 0 -2525220.143 16160686.088 19593755.868 10 0 59598 14400.00000 0 -3960226.788 17956991.632 17697251.647 10 0 59598 15300.00000 0 -5105943.011 19651470.984 15457544.551 10 0 59598 16200.00000 0 -5962588.358 21180351.901 12917954.111 10 0 59598 17100.00000 0 -6542900.821 22483184.979 10127647.846 10 0 59598 18000.00000 0 -6871348.952 23505359.134 7140699.069 10 0 59598 18900.00000 0 -6982850.754 24200396.059 4015046.000 10 0 59598 19800.00000 0 -6921053.060 24531926.697 811371.600 10 0 59598 20700.00000 0 -6736243.919 24475265.579 -2408074.326 10 0 59598 21600.00000 0 -6482986.319 24018515.393 -5580687.817 10 0 59598 22500.00000 0 -6217573.794 23163153.707 -8644734.164 10 0 59598 23400.00000 0 -5995416.373 21924075.538 -11540557.370 10 0 59598 24300.00000 0 -5868468.635 20329088.510 -14211751.160 10 0 59598 25200.00000 0 -5882810.128 18417880.600 -16606267.700 10 0 59598 26100.00000 0 -6076482.028 16240502.975 -18677441.319 10 0 59598 27000.00000 0 -6477673.108 13855431.097 -20384906.449 10 0 59598 27900.00000 0 -7103333.226 11327285.116 -21695391.187 10 0 59598 28800.00000 0 -7958274.192 8724305.160 -22583370.513 10 0 59598 29700.00000 0 -9034797.156 6115687.299 -23031566.212 10 0 59598 30600.00000 0 -10312863.112 3568891.701 -23031283.746 10 0 59598 31500.00000 0 -11760799.984 1147035.604 -22582579.598 10 0 59598 32400.00000 0 -13336516.943 -1093520.197 -21694256.131 10 0 59598 33300.00000 0 -14989175.049 -3105291.035 -20383684.349 10 0 59598 34200.00000 0 -16661243.958 -4851406.386 -18676458.442 10 0 59598 35100.00000 0 -18290858.046 -6306894.808 -16605889.226 10 0 59598 36000.00000 0 -19814372.736 -7459463.555 -14212346.812 10 0 59598 36900.00000 0 -21169013.204 -8309742.019 -11542465.824 10 0 59598 37800.00000 0 -22295503.921 -8870980.890 -8648229.182 10 0 59598 38700.00000 0 -23140568.303 -9168221.887 -5585948.857 10 0 59598 39600.00000 0 -23659193.316 -9236975.147 -2415164.128 10 0 59598 40500.00000 0 -23816563.973 -9121462.134 802520.619 10 0 59598 41400.00000 0 -23589586.750 -8872499.990 4004635.440 10 0 59598 42300.00000 0 -22967938.388 -8545118.125 7129057.866 10 0 59598 43200.00000 0 -21954596.684 -8196008.790 10115215.697 10 0 59598 44100.00000 0 -20565831.646 -7880919.925 12905256.255 10 0 59598 45000.00000 0 -18830657.934 -7652100.530 15445159.607 10 0 59598 45900.00000 0 -16789771.941 -7555906.201 17685774.935 10 0 59598 46800.00000 0 -14494018.174 -7630665.319 19583760.892 10 0 59598 47700.00000 0 -12002448.654 -7904895.112 21102412.797 10 0 59598 48600.00000 0 -9380055.602 -8395942.079 22212361.972 10 0 59598 49500.00000 0 -6695270.703 -9109103.509 22892134.909 10 0 59598 50400.00000 0 -4017333.568 -10037266.803 23128562.507 10 0 59598 51300.00000 0 -1413637.005 -11161082.094 22917032.299 10 0 59598 52200.00000 0 1052842.556 -12449661.661 22261579.195 10 0 59598 53100.00000 0 3325924.522 -13861778.032 21174812.964 10 0 59598 54000.00000 0 5358316.431 -15347512.161 19677683.393 10 0 59598 54900.00000 0 7113333.516 -16850284.384 17799086.752 10 0 59598 55800.00000 0 8566175.020 -18309184.858 15575319.979 10 0 59598 56700.00000 0 9704704.799 -19661507.368 13049391.765 10 0 59598 57600.00000 0 10529703.974 -20845381.540 10270202.379 10 0 59598 58500.00000 0 11054585.082 -21802393.661 7291606.830 10 0 59598 59400.00000 0 11304579.614 -22480086.221 4171378.446 10 0 59598 60300.00000 0 11315432.897 -22834230.668 970092.157 10 0 59598 61200.00000 0 11131661.111 -22830776.757 -2250051.067 10 0 59598 62100.00000 0 10804444.027 -22447395.069 -5426435.727 10 0 59598 63000.00000 0 10389242.744 -21674546.008 -8497255.284 10 0 59598 63900.00000 0 9943243.729 -20516028.464 -11402722.895 10 0 59598 64800.00000 0 9522738.169 -18988983.270 -14086244.953 10 0 59598 65700.00000 0 9180548.651 -17123349.677 -16495533.469 10 0 59598 66600.00000 0 8963613.332 -14960796.432 -18583634.550 10 0 59598 67500.00000 0 8910831.138 -12553171.366 -20309852.060 10 0 59598 68400.00000 0 9051260.410 -9960533.864 -21640547.758 10 0 59598 69300.00000 0 9402748.270 -7248852.386 -22549801.793 10 0 59598 70200.00000 0 9971049.578 -4487463.251 -23019920.468 10 0 59598 71100.00000 0 10749473.380 -1746396.872 -23041781.341 10 0 59598 72000.00000 0 11719072.260 906316.782 -22615009.032 10 0 59598 72900.00000 0 12849366.817 3407251.166 -21747978.575 10 0 59598 73800.00000 0 14099574.815 5699986.302 -20457646.577 10 0 59598 74700.00000 0 15420292.993 7737212.260 -18769213.845 10 0 59598 75600.00000 0 16755560.443 9482446.156 -16715626.482 10 0 59598 76500.00000 0 18045216.232 10911292.174 -14336925.602 10 0 59598 77400.00000 0 19227451.516 12012193.443 -11679458.874 10 0 59598 78300.00000 0 20241448.221 12786646.245 -8794969.792 10 0 59598 79200.00000 0 21029992.806 13248869.648 -5739582.970 10 0 59598 80100.00000 0 21541954.716 13424946.633 -2572705.915 10 0 59598 81000.00000 0 21734525.075 13351475.021 644130.732 10 0 59598 81900.00000 0 21575121.453 13073787.086 3848471.445 10 0 59598 82800.00000 0 21042878.839 12643814.583 6978148.717 10 0 59598 83700.00000 0 20129664.477 12117690.621 9972486.858 10 0 59598 84600.00000 0 18840574.363 11553190.427 12773473.385 10 0 59598 85500.00000 0 17193890.990 11007119.355 15326875.453 10 0 59599 0.00000 0 15220504.663 10532758.327 17583280.241 10 0 59599 900.00000 0 12962821.456 10177473.657 19499041.194 10 0 59599 1800.00000 0 10473205.970 9980591.816 21037109.901 10 0 59599 2700.00000 0 7812019.613 9971626.841 22167742.833 10 0 59599 3600.00000 0 5045337.553 10168934.790 22869067.412 10 0 59599 4500.00000 0 2242436.935 10578850.869 23127498.777 10 0 59599 5400.00000 0 -526840.890 11195345.256 22937999.839 10 0 59599 6300.00000 0 -3194746.552 12000212.245 22304180.020 10 0 59599 7200.00000 0 -5698188.878 12963785.423 21238230.769 10 0 59599 8100.00000 0 -7981106.500 14046149.962 19760698.667 10 0 59599 9000.00000 0 -9996547.931 15198802.615 17900099.619 10 0 59599 9900.00000 0 -11708374.798 16366691.277 15692380.405 10 0 59599 10800.00000 0 -13092518.211 17490550.086 13180236.635 10 0 59599 11700.00000 0 -14137736.312 18509433.257 10412298.792 10 0 59599 12600.00000 0 -14845841.410 19363342.059 7442200.844 10 0 59599 13500.00000 0 -15231387.097 19995834.804 4327548.336 10 0 59599 14400.00000 0 -15320828.208 20356509.780 1128805.191 10 0 59599 15300.00000 0 -15151188.665 20403255.744 -2091879.478 10 0 59599 16200.00000 0 -14768293.205 20104173.845 -5271881.675 10 0 59599 17100.00000 0 -14224637.679 19439088.285 -8349326.012 10 0 59599 18000.00000 0 -13576988.189 18400580.126 -11264297.701 10 0 59599 18900.00000 0 -12883811.207 16994498.749 -13960018.532 10 0 59599 19800.00000 0 -12202644.203 15239927.472 -16383962.869 10 0 59599 20700.00000 0 -11587519.028 13168603.194 -18488890.823 10 0 59599 21600.00000 0 -11086548.146 10823813.032 -20233777.604 10 0 59599 22500.00000 0 -10739776.828 8258813.208 -21584620.202 10 0 59599 23400.00000 0 -10577393.067 5534835.827 -22515105.156 10 0 59599 24300.00000 0 -10618371.568 2718766.513 -23007124.146 10 0 59599 25200.00000 0 -10869609.625 -119410.206 -23051127.302 10 0 59599 26100.00000 0 -11325591.593 -2909291.126 -22646307.449 10 0 59599 27000.00000 0 -11968596.143 -5582748.453 -21800611.951 10 0 59599 27900.00000 0 -12769437.342 -8076525.598 -20530582.237 10 0 59599 28800.00000 0 -13688707.887 -10334626.702 -18861024.530 10 0 59599 29700.00000 0 -14678471.542 -12310400.875 -16824518.623 10 0 59599 30600.00000 0 -15684332.756 -13968235.136 -14460774.683 10 0 59599 31500.00000 0 -16647795.485 -15284786.506 -11815851.197 10 0 59599 32400.00000 0 -17508811.068 -16249703.376 -8941249.788 10 0 59599 33300.00000 0 -18208407.077 -16865807.815 -5892905.115 10 0 59599 34200.00000 0 -18691285.738 -17148733.168 -2730090.217 10 0 59599 35100.00000 0 -18908282.022 -17126034.335 485740.790 10 0 59599 36000.00000 0 -18818577.591 -16835810.226 3692149.650 10 0 59599 36900.00000 0 -18391577.286 -16324898.176 6826926.670 10 0 59599 37800.00000 0 -17608369.497 -15646718.085 9829295.526 10 0 59599 38700.00000 0 -16462709.100 -14858858.118 12641086.741 10 0 59599 39600.00000 0 -14961481.926 -14020504.321 15207857.263 10 0 59599 40500.00000 0 -13124631.591 -13189822.697 17479935.153 10 0 59599 41400.00000 0 -10984551.736 -12421403.555 19413370.075 10 0 59599 42300.00000 0 -8584968.846 -11763874.996 20970772.228 10 0 59599 43200.00000 0 -5979361.548 -11257784.842 22122024.749 10 0 59599 44100.00000 0 -3228981.215 -10933838.946 22844857.100 10 0 59599 45000.00000 0 -400554.857 -10811568.841 23125269.351 10 0 59599 45900.00000 0 2436235.993 -10898483.886 22957800.087 10 0 59599 46800.00000 0 5211397.718 -11189743.051 22345633.176 10 0 59599 47700.00000 0 7857280.621 -11668360.180 21300541.344 10 0 59599 48600.00000 0 10311140.248 -12305934.622 19842667.260 10 0 59599 49500.00000 0 12517499.426 -13063877.488 18000145.457 10 0 59599 50400.00000 0 14430214.086 -13895083.235 15808571.254 10 0 59599 51300.00000 0 16014157.980 -14745977.673 13310325.551 10 0 59599 52200.00000 0 17246456.566 -15558857.518 10553767.078 10 0 59599 53100.00000 0 18117218.646 -16274423.995 7592306.449 10 0 59599 54000.00000 0 18629735.013 -16834404.360 4483378.795 10 0 59599 54900.00000 0 18800135.442 -17184150.858 1287334.118 10 0 59599 55800.00000 0 18656517.963 -17275106.953 -1933733.432 10 0 59599 56700.00000 0 18237586.746 -17067035.722 -5117194.559 10 0 59599 57600.00000 0 17590855.822 -16529914.770 -8201108.236 10 0 59599 58500.00000 0 16770494.486 -15645415.886 -11125434.848 10 0 59599 59400.00000 0 15834905.727 -14407904.953 -13833214.536 10 0 59599 60300.00000 0 14844140.582 -12824917.866 -16271686.758 10 0 59599 61200.00000 0 13857258.501 -10917090.534 -18393328.118 10 0 59599 62100.00000 0 12929746.149 -8717544.197 -20156787.344 10 0 59599 63000.00000 0 12111104.599 -6270750.421 -21527698.493 10 0 59599 63900.00000 0 11442707.641 -3630922.443 -22479355.941 10 0 59599 64800.00000 0 10956022.213 -859999.444 -22993237.773 10 0 59599 65700.00000 0 10671266.414 1974692.390 -23059367.297 10 0 59599 66600.00000 0 10596561.806 4803004.473 -22676505.727 10 0 59599 67500.00000 0 10727615.546 7554649.230 -21852172.529 10 0 59599 68400.00000 0 11047945.306 10161890.495 -20602493.348 10 0 59599 69300.00000 0 11529636.798 12562128.843 -18951878.856 10 0 59599 70200.00000 0 12134601.137 14700274.442 -16932541.216 10 0 59599 71100.00000 0 12816278.026 16530809.057 -14583858.006 10 0 59599 72000.00000 0 13521711.917 18019451.956 -11951596.541 10 0 59599 72900.00000 0 14193912.526 19144361.357 -9087014.263 10 0 59599 73800.00000 0 14774399.146 19896822.695 -6045853.263 10 0 59599 74700.00000 0 15205820.557 20281396.593 -2887249.244 10 0 59599 75600.00000 0 15434539.307 20315522.341 327423.261 10 0 59599 76500.00000 0 15413070.879 20028595.461 3535746.392 10 0 59599 77400.00000 0 15102274.674 19460560.119 6675471.442 10 0 59599 78300.00000 0 14473204.421 18660077.183 9685724.538 10 0 59599 79200.00000 0 13508540.162 17682346.328 12508182.100 10 0 59599 80100.00000 0 12203541.839 16586674.721 15088193.549 10 0 59599 81000.00000 0 10566484.513 15433894.890 17375830.084 10 0 59599 81900.00000 0 8618556.937 14283740.210 19326840.183 10 0 59599 82800.00000 0 6393227.591 13192287.689 20903494.337 10 0 59599 83700.00000 0 3935103.957 12209574.413 22075303.966 10 0 59599 84600.00000 0 1298331.615 11377486.446 22819601.854 10 0 59599 85500.00000 0 -1455401.473 10728007.446 23121973.949 10 0 59600 0.00000 0 -4259173.994 10281899.279 22976535.095 10 0 59600 900.00000 0 -7043361.181 10047868.778 22386043.694 10 0 59600 1800.00000 0 -9738278.750 10022255.628 21361853.399 10 0 59600 2700.00000 0 -12276838.192 10189253.550 19923702.140 10 0 59600 3600.00000 0 -14597101.215 10521656.520 18099341.768 10 0 59600 4500.00000 0 -16644630.126 10982099.136 15924014.380 10 0 59600 5400.00000 0 -18374537.213 11524740.038 13439784.026 10 0 59600 6300.00000 0 -19753148.393 12097318.608 10694735.229 10 0 59600 7200.00000 0 -20759211.787 12643499.276 7742052.565 10 0 59600 8100.00000 0 -21384600.525 13105405.277 4638997.927 10 0 59600 9000.00000 0 -21634479.899 13426235.153 1445804.480 10 0 59600 9900.00000 0 -21526931.176 13552851.252 -1775491.536 10 0 59600 10800.00000 0 -21092047.356 13438230.039 -4962258.496 10 0 59600 11700.00000 0 -20370538.458 13043669.350 -8052492.682 10 0 59600 12600.00000 0 -19411904.888 12340657.608 -10986032.540 10 0 59600 13500.00000 0 -18272256.000 11312324.078 -13705739.363 10 0 59600 14400.00000 0 -17011866.217 9954406.798 -16158620.324 10 0 59600 15300.00000 0 -15692572.444 8275695.345 -18296870.889 10 0 59600 16200.00000 0 -14375123.321 6297927.849 -20078815.375 10 0 59600 17100.00000 0 -13116592.880 4055144.869 -21469726.604 10 0 59600 18000.00000 0 -11967968.439 1592525.996 -22442508.092 10 0 59600 18900.00000 0 -10972014.904 -1035243.115 -22978225.208 10 0 59600 19800.00000 0 -10161505.749 -3766005.639 -23066474.892 10 0 59600 20700.00000 0 -9557895.247 -6532485.673 -22705586.766 10 0 59600 21600.00000 0 -9170487.459 -9264859.548 -21902651.994 10 0 59600 22500.00000 0 -8996136.410 -11893439.169 -20673379.615 10 0 59600 23400.00000 0 -9019489.131 -14351355.479 -19041783.544 10 0 59600 24300.00000 0 -9213760.233 -16577130.262 -17039706.755 10 0 59600 25200.00000 0 -9542004.063 -18517029.367 -14706192.374 10 0 59600 26100.00000 0 -9958829.475 -20127099.547 -12086714.456 10 0 59600 27000.00000 0 -10412483.498 -21374804.726 -9232284.003 10 0 59600 27900.00000 0 -10847214.674 -22240194.384 -6198448.170 10 0 59600 28800.00000 0 -11205815.156 -22716556.507 -3044202.884 10 0 59600 29700.00000 0 -11432233.251 -22810529.442 169159.387 10 0 59600 30600.00000 0 -11474145.345 -22541669.664 3379243.710 10 0 59600 31500.00000 0 -11285378.227 -21941495.478 6523764.904 10 0 59600 32400.00000 0 -10828079.374 -21052048.463 9541754.089 10 0 59600 33300.00000 0 -10074543.694 -19924034.544 12374736.178 10 0 59600 34200.00000 0 -9008619.839 -18614623.670 14967855.599 10 0 59600 35100.00000 0 -7626637.053 -17185001.215 17270929.101 10 0 59600 36000.00000 0 -5937813.815 -15697773.984 19239406.209 10 0 59600 36900.00000 0 -3964130.848 -14214339.098 20835219.699 10 0 59600 37800.00000 0 -1739673.336 -12792325.180 22027510.973 10 0 59600 38700.00000 0 690531.082 -11483211.753 22793217.514 10 0 59600 39600.00000 0 3272131.314 -10330225.141 23117512.169 10 0 59600 40500.00000 0 5943463.052 -9366597.450 22994086.662 10 0 59600 41400.00000 0 8637868.610 -8614260.153 22425274.335 10 0 59600 42300.00000 0 11286231.914 -8083025.975 21422009.828 10 0 59600 43200.00000 0 13819625.465 -7770292.666 20003626.061 10 0 59600 44100.00000 0 16171961.221 -7661280.893 18197491.648 10 0 59600 45000.00000 0 18282536.699 -7729796.483 16038494.593 10 0 59600 45900.00000 0 20098371.622 -7939485.566 13568380.866 10 0 59600 46800.00000 0 21576238.428 -8245530.551 10834959.202 10 0 59600 47700.00000 0 22684302.095 -8596716.342 7891186.155 10 0 59600 48600.00000 0 23403300.540 -8937780.282 4794147.998 10 0 59600 49500.00000 0 23727215.624 -9211946.970 1603958.317 10 0 59600 50400.00000 0 23663405.797 -9363540.793 -1617407.610 10 0 59600 51300.00000 0 23232194.023 -9340565.122 -4807319.080 10 0 59600 52200.00000 0 22465927.551 -9097138.029 -7903713.023 10 0 59600 53100.00000 0 21407548.557 -8595680.022 -10846309.271 10 0 59600 54000.00000 0 20108735.586 -7808759.456 -13577793.450 10 0 59600 54900.00000 0 18627694.142 -6720515.560 -16044943.442 10 0 59600 55800.00000 0 17026689.844 -5327596.972 -18199676.315 10 0 59600 56700.00000 0 15369428.589 -3639574.102 -19999994.426 10 0 59600 57600.00000 0 13718394.692 -1678806.156 -21410811.502 10 0 59600 58500.00000 0 12132259.708 520233.179 -22404641.982 10 0 59600 59400.00000 0 10663471.466 2912144.305 -22962139.941 10 0 59600 60300.00000 0 9356124.981 5442255.714 -23072476.964 10 0 59600 61200.00000 0 8244204.781 8048674.690 -22733551.681 10 0 59600 62100.00000 0 7350272.165 10664649.356 -21952027.120 10 0 59600 63000.00000 0 6684651.853 13221143.568 -20743195.457 10 0 59600 63900.00000 0 6245151.234 15649517.073 -19130673.158 10 0 59600 64800.00000 0 6017322.688 17884199.119 -17145932.911 10 0 59600 65700.00000 0 5975256.401 19865243.971 -14827681.880 10 0 59600 66600.00000 0 6082868.673 21540661.775 -12221098.962 10 0 59600 67500.00000 0 6295629.694 22868427.843 -9376946.435 10 0 59600 68400.00000 0 6562656.273 23818087.065 -6350573.896 10 0 59600 69300.00000 0 6829079.710 24371887.258 -3200834.575 10 0 59600 70200.00000 0 7038587.497 24525395.212 11064.247 10 0 59600 71100.00000 0 7136030.489 24287571.174 3222753.824 10 0 59600 72000.00000 0 7069984.715 23680300.150 6371915.806 10 0 59600 72900.00000 0 6795159.229 22737401.253 9397489.560 10 0 59600 73800.00000 0 6274548.234 21503158.075 12240851.572 10 0 59600 74700.00000 0 5481236.776 20030432.775 14846944.151 10 0 59600 75600.00000 0 4399784.118 18378443.753 17165332.252 10 0 59600 76500.00000 0 3027126.696 16610300.238 19151168.831 10 0 59600 77400.00000 0 1372962.751 14790396.822 20766051.051 10 0 59600 78300.00000 0 -540397.773 12981776.167 21978752.092 10 0 59600 79200.00000 0 -2678712.598 11243568.930 22765815.609 10 0 59600 80100.00000 0 -4996988.349 9628616.502 23112002.469 10 0 59600 81000.00000 0 -7441115.905 8181374.216 23010582.035 10 0 59600 81900.00000 0 -9949893.605 6936181.021 22463462.859 10 0 59600 82800.00000 0 -12457356.055 5915966.551 21481160.378 10 0 59600 83700.00000 0 -14895313.781 5131448.521 20082601.834 10 0 59600 84600.00000 0 -17196000.114 4580853.327 18294771.424 10 0 59600 85500.00000 0 -19294716.808 4250171.337 16152201.394 99